| time (UTC) | temp F | wind direction | speed MPH | gust MPH | rain 1hr in | rain 24hr in | rain mn in | humidity % | barometer mb |
| 20260509035457 | 51 | 91 | 7.0 | 10.0 | 0.00 | 0.00 | 0.00 | 76 | 1022.1 |
| 20260509034957 | 51 | 98 | 6.0 | 8.0 | 0.00 | 0.00 | 0.00 | 76 | 1022.0 |
| 20260509034725 | 0 | 0.0 | 0.0 | 0.00 | 0.00 | 0.00 | |||
| 20260509034457 | 51 | 104 | 5.0 | 7.0 | 0.00 | 0.00 | 0.00 | 76 | 1022.0 |
| 20260509034222 | 0 | 0.0 | 0.0 | 0.00 | 0.00 | 0.00 | |||
| 20260509033957 | 51 | 109 | 5.0 | 6.0 | 0.00 | 0.00 | 0.00 | 76 | 1022.0 |
| 20260509033722 | 0 | 0.0 | 0.0 | 0.00 | 0.00 | 0.00 | |||
| 20260509033457 | 51 | 88 | 6.0 | 8.0 | 0.00 | 0.00 | 0.00 | 76 | 1021.8 |
| 20260509033222 | 0 | 0.0 | 0.0 | 0.00 | 0.00 | 0.00 | |||
| 20260509032957 | 50 | 113 | 5.0 | 6.0 | 0.00 | 0.00 | 0.00 | 77 | 1021.9 |
| 20260509032457 | 50 | 107 | 4.0 | 6.0 | 0.00 | 0.00 | 0.00 | 76 | 1021.8 |
| 20260509032222 | 0 | 0.0 | 0.0 | 0.00 | 0.00 | 0.00 | |||
| 20260509031958 | 50 | 112 | 5.0 | 7.0 | 0.00 | 0.00 | 0.00 | 76 | 1021.8 |
| 20260509031723 | 0 | 0.0 | 0.0 | 0.00 | 0.00 | 0.00 | |||
| 20260509031457 | 50 | 102 | 6.0 | 8.0 | 0.00 | 0.00 | 0.00 | 76 | 1021.8 |
| 20260509031222 | 0 | 0.0 | 0.0 | 0.00 | 0.00 | 0.00 | |||
| 20260509030957 | 50 | 103 | 5.0 | 7.0 | 0.00 | 0.00 | 0.00 | 76 | 1021.8 |
| 20260509030723 | 0 | 0.0 | 0.0 | 0.00 | 0.00 | 0.00 | |||
| 20260509030457 | 50 | 104 | 5.0 | 6.0 | 0.00 | 0.00 | 0.00 | 76 | 1021.7 |
| 20260509030224 | 0 | 0.0 | 0.0 | 0.00 | 0.00 | 0.00 | |||
| 20260509025958 | 50 | 122 | 4.0 | 5.0 | 0.00 | 0.00 | 0.00 | 76 | 1021.7 |
| 20260509025724 | 0 | 0.0 | 0.0 | 0.00 | 0.00 | 0.00 | |||
| 20260509025457 | 50 | 108 | 6.0 | 7.0 | 0.00 | 0.00 | 0.00 | 75 | 1021.6 |
| 20260509025223 | 0 | 0.0 | 0.0 | 0.00 | 0.00 | 0.00 | |||
| 20260509024957 | 50 | 108 | 6.0 | 8.0 | 0.00 | 0.00 | 0.00 | 75 | 1021.7 |
| 20260509024720 | 0 | 0.0 | 0.0 | 0.00 | 0.00 | 0.00 | |||
| 20260509024457 | 50 | 109 | 6.0 | 6.0 | 0.00 | 0.00 | 0.00 | 75 | 1021.6 |
| 20260509024220 | 0 | 0.0 | 0.0 | 0.00 | 0.00 | 0.00 | |||
| 20260509023957 | 51 | 118 | 4.0 | 5.0 | 0.00 | 0.00 | 0.00 | 75 | 1021.6 |
| 20260509023721 | 0 | 0.0 | 0.0 | 0.00 | 0.00 | 0.00 | |||
| 20260509023457 | 51 | 110 | 5.0 | 7.0 | 0.00 | 0.00 | 0.00 | 76 | 1021.6 |
| 20260509023220 | 0 | 0.0 | 0.0 | 0.00 | 0.00 | 0.00 | |||
| 20260509022957 | 51 | 114 | 5.0 | 6.0 | 0.00 | 0.00 | 0.00 | 75 | 1021.5 |
| 20260509022720 | 0 | 0.0 | 0.0 | 0.00 | 0.00 | 0.00 | |||
| 20260509022457 | 51 | 114 | 5.0 | 6.0 | 0.00 | 0.00 | 0.00 | 75 | 1021.5 |
| 20260509022221 | 0 | 0.0 | 0.0 | 0.00 | 0.00 | 0.00 | |||
| 20260509021957 | 51 | 126 | 3.0 | 4.0 | 0.00 | 0.00 | 0.00 | 75 | 1021.4 |
| 20260509021457 | 51 | 132 | 3.0 | 5.0 | 0.00 | 0.00 | 0.00 | 74 | 1021.4 |
| 20260509021221 | 0 | 0.0 | 0.0 | 0.00 | 0.00 | 0.00 | |||
| 20260509020958 | 51 | 126 | 4.0 | 5.0 | 0.00 | 0.00 | 0.00 | 74 | 1021.4 |
| 20260509020721 | 0 | 0.0 | 0.0 | 0.00 | 0.00 | 0.00 | |||
| 20260509020457 | 51 | 140 | 3.0 | 5.0 | 0.00 | 0.00 | 0.00 | 74 | 1021.3 |
| 20260509020221 | 0 | 0.0 | 0.0 | 0.00 | 0.00 | 0.00 | |||
| 20260509015957 | 51 | 120 | 3.0 | 4.0 | 0.00 | 0.00 | 0.00 | 74 | 1021.3 |
| 20260509015722 | 0 | 0.0 | 0.0 | 0.00 | 0.00 | 0.00 | |||
| 20260509015457 | 52 | 120 | 4.0 | 6.0 | 0.00 | 0.00 | 0.00 | 73 | 1021.3 |
| 20260509014959 | 52 | 118 | 5.0 | 6.0 | 0.00 | 0.00 | 0.00 | 73 | 1021.4 |
| 20260509014718 | 0 | 0.0 | 0.0 | 0.00 | 0.00 | 0.00 | |||
| 20260509014457 | 52 | 133 | 4.0 | 6.0 | 0.00 | 0.00 | 0.00 | 74 | 1021.4 |
| 20260509014219 | 0 | 0.0 | 0.0 | 0.00 | 0.00 | 0.00 | |||
| 20260509013957 | 53 | 140 | 4.0 | 6.0 | 0.00 | 0.00 | 0.00 | 72 | 1021.4 |
| 20260509013718 | 0 | 0.0 | 0.0 | 0.00 | 0.00 | 0.00 | |||
| 20260509013458 | 53 | 133 | 4.0 | 8.0 | 0.00 | 0.00 | 0.00 | 72 | 1021.4 |
| 20260509012957 | 52 | 132 | 4.0 | 5.0 | 0.00 | 0.00 | 0.00 | 73 | 1021.3 |
| 20260509012717 | 0 | 0.0 | 0.0 | 0.00 | 0.00 | 0.00 | |||
| 20260509012457 | 52 | 140 | 5.0 | 6.0 | 0.00 | 0.00 | 0.00 | 73 | 1021.4 |
| 20260509012217 | 0 | 0.0 | 0.0 | 0.00 | 0.00 | 0.00 | |||
| 20260509011957 | 52 | 125 | 4.0 | 6.0 | 0.00 | 0.00 | 0.00 | 73 | 1021.5 |
| 20260509011717 | 0 | 0.0 | 0.0 | 0.00 | 0.00 | 0.00 | |||
| 20260509011458 | 52 | 143 | 4.0 | 6.0 | 0.00 | 0.00 | 0.00 | 74 | 1021.5 |
| 20260509011221 | 0 | 0.0 | 0.0 | 0.00 | 0.00 | 0.00 | |||
| 20260509010957 | 52 | 152 | 4.0 | 7.0 | 0.00 | 0.00 | 0.00 | 74 | 1021.5 |
| 20260509010717 | 0 | 0.0 | 0.0 | 0.00 | 0.00 | 0.00 | |||
| 20260509010459 | 52 | 163 | 4.0 | 7.0 | 0.00 | 0.00 | 0.00 | 74 | 1021.3 |
| 20260509010217 | 0 | 0.0 | 0.0 | 0.00 | 0.00 | 0.00 | |||
| 20260509005957 | 52 | 143 | 4.0 | 6.0 | 0.00 | 0.00 | 0.00 | 74 | 1021.3 |
| 20260509005721 | 0 | 0.0 | 0.0 | 0.00 | 0.00 | 0.00 | |||
| 20260509005457 | 52 | 138 | 5.0 | 7.0 | 0.00 | 0.00 | 0.00 | 74 | 1021.2 |
| 20260509005213 | 0 | 0.0 | 0.0 | 0.00 | 0.00 | 0.00 | |||
| 20260509004957 | 52 | 129 | 5.0 | 7.0 | 0.00 | 0.00 | 0.00 | 73 | 1021.2 |
| 20260509004713 | 0 | 0.0 | 0.0 | 0.00 | 0.00 | 0.00 | |||
| 20260509004457 | 52 | 124 | 4.0 | 6.0 | 0.00 | 0.00 | 0.00 | 73 | 1021.2 |
| 20260509004213 | 0 | 0.0 | 0.0 | 0.00 | 0.00 | 0.00 | |||
| 20260509003957 | 52 | 135 | 4.0 | 6.0 | 0.00 | 0.00 | 0.00 | 74 | 1021.3 |
| 20260509003710 | 0 | 0.0 | 0.0 | 0.00 | 0.00 | 0.00 | |||
| 20260509003457 | 52 | 133 | 3.0 | 4.0 | 0.00 | 0.00 | 0.00 | 75 | 1021.3 |
| 20260509003210 | 0 | 0.0 | 0.0 | 0.00 | 0.00 | 0.00 | |||
| 20260509002958 | 52 | 162 | 6.0 | 9.0 | 0.00 | 0.00 | 0.00 | 74 | 1021.3 |
| 20260509002711 | 0 | 0.0 | 0.0 | 0.00 | 0.00 | 0.00 | |||
| 20260509002457 | 52 | 152 | 6.0 | 9.0 | 0.00 | 0.00 | 0.00 | 74 | 1021.4 |
| 20260509002211 | 0 | 0.0 | 0.0 | 0.00 | 0.00 | 0.00 | |||
| 20260509001958 | 52 | 131 | 4.0 | 5.0 | 0.00 | 0.00 | 0.00 | 74 | 1021.3 |
| 20260509001711 | 0 | 0.0 | 0.0 | 0.00 | 0.00 | 0.00 | |||
| 20260509001457 | 52 | 158 | 5.0 | 6.0 | 0.00 | 0.00 | 0.00 | 76 | 1021.3 |
| 20260509001210 | 0 | 0.0 | 0.0 | 0.00 | 0.00 | 0.00 | |||
| 20260509000957 | 52 | 147 | 4.0 | 6.0 | 0.00 | 0.00 | 0.00 | 74 | 1021.2 |
| 20260509000457 | 53 | 165 | 5.0 | 7.0 | 0.00 | 0.00 | 0.00 | 74 | 1021.2 |
| 20260509000211 | 0 | 0.0 | 0.0 | 0.00 | 0.00 | 0.00 | |||
| 20260508235957 | 53 | 157 | 4.0 | 5.0 | 0.00 | 0.00 | 0.00 | 74 | 1021.2 |
| 20260508235711 | 0 | 0.0 | 0.0 | 0.00 | 0.00 | 0.00 | |||
| 20260508235457 | 53 | 137 | 3.0 | 6.0 | 0.00 | 0.00 | 0.00 | 74 | 1021.1 |
| 20260508235208 | 0 | 0.0 | 0.0 | 0.00 | 0.00 | 0.00 | |||
| 20260508234957 | 53 | 153 | 4.0 | 8.0 | 0.00 | 0.00 | 0.00 | 73 | 1021.1 |
| 20260508234708 | 0 | 0.0 | 0.0 | 0.00 | 0.00 | 0.00 | |||
| 20260508234456 | 54 | 154 | 4.0 | 6.0 | 0.00 | 0.00 | 0.00 | 73 | 1021.3 |
| 20260508234205 | 0 | 0.0 | 0.0 | 0.00 | 0.00 | 0.00 | |||
| 20260508233957 | 53 | 141 | 4.0 | 5.0 | 0.00 | 0.00 | 0.00 | 74 | 1021.2 |
| 20260508233705 | 0 | 0.0 | 0.0 | 0.00 | 0.00 | 0.00 | |||
| 20260508233459 | 54 | 155 | 5.0 | 8.0 | 0.00 | 0.00 | 0.00 | 72 | 1021.1 |
| 20260508233205 | 0 | 0.0 | 0.0 | 0.00 | 0.00 | 0.00 | |||
| 20260508232957 | 54 | 148 | 4.0 | 7.0 | 0.00 | 0.00 | 0.00 | 71 | 1021.2 |
| 20260508232706 | 0 | 0.0 | 0.0 | 0.00 | 0.00 | 0.00 | |||
| 20260508232457 | 54 | 141 | 6.0 | 9.0 | 0.00 | 0.00 | 0.00 | 72 | 1021.1 |
| 20260508232206 | 0 | 0.0 | 0.0 | 0.00 | 0.00 | 0.00 | |||
| 20260508231957 | 55 | 147 | 5.0 | 8.0 | 0.00 | 0.00 | 0.00 | 71 | 1021.0 |
| 20260508231705 | 0 | 0.0 | 0.0 | 0.00 | 0.00 | 0.00 | |||
| 20260508231458 | 55 | 124 | 6.0 | 8.0 | 0.00 | 0.00 | 0.00 | 71 | 1021.1 |
| 20260508230957 | 54 | 146 | 5.0 | 7.0 | 0.00 | 0.00 | 0.00 | 71 | 1021.1 |
| 20260508230457 | 53 | 152 | 5.0 | 8.0 | 0.00 | 0.00 | 0.00 | 72 | 1021.2 |
| 20260508230206 | 0 | 0.0 | 0.0 | 0.00 | 0.00 | 0.00 | |||
| 20260508230004 | 53 | 143 | 5.0 | 8.0 | 0.00 | 0.00 | 0.00 | 73 | 1021.1 |
| 20260508225457 | 53 | 161 | 5.0 | 8.0 | 0.00 | 0.00 | 0.00 | 73 | 1020.9 |
| 20260508225206 | 0 | 0.0 | 0.0 | 0.00 | 0.00 | 0.00 | |||
| 20260508224957 | 53 | 147 | 6.0 | 8.0 | 0.00 | 0.00 | 0.00 | 72 | 1021.0 |
| 20260508224703 | 0 | 0.0 | 0.0 | 0.00 | 0.00 | 0.00 | |||
| 20260508224457 | 53 | 142 | 5.0 | 7.0 | 0.00 | 0.00 | 0.00 | 73 | 1021.0 |
| 20260508224203 | 0 | 0.0 | 0.0 | 0.00 | 0.00 | 0.00 | |||
| 20260508223957 | 53 | 155 | 6.0 | 9.0 | 0.00 | 0.00 | 0.00 | 72 | 1021.0 |
| 20260508223703 | 0 | 0.0 | 0.0 | 0.00 | 0.00 | 0.00 | |||
| 20260508223458 | 53 | 163 | 6.0 | 10.0 | 0.00 | 0.00 | 0.00 | 72 | 1021.0 |
| 20260508222958 | 53 | 160 | 6.0 | 8.0 | 0.00 | 0.00 | 0.00 | 72 | 1020.9 |
| 20260508222704 | 0 | 0.0 | 0.0 | 0.00 | 0.00 | 0.00 | |||
| 20260508222459 | 53 | 161 | 5.0 | 7.0 | 0.00 | 0.00 | 0.00 | 72 | 1020.9 |
| 20260508221957 | 53 | 144 | 6.0 | 7.0 | 0.00 | 0.00 | 0.00 | 72 | 1021.0 |
| 20260508221705 | 0 | 0.0 | 0.0 | 0.00 | 0.00 | 0.00 | |||
| 20260508221457 | 53 | 155 | 6.0 | 8.0 | 0.00 | 0.00 | 0.00 | 71 | 1021.0 |
| 20260508220959 | 53 | 150 | 7.0 | 9.0 | 0.00 | 0.00 | 0.00 | 72 | 1020.9 |
| 20260508220704 | 0 | 0.0 | 0.0 | 0.00 | 0.00 | 0.00 | |||
| 20260508220458 | 53 | 158 | 4.0 | 6.0 | 0.00 | 0.00 | 0.00 | 72 | 1020.9 |
| 20260508215957 | 54 | 145 | 6.0 | 9.0 | 0.00 | 0.00 | 0.00 | 71 | 1020.7 |
| 20260508215705 | 0 | 0.0 | 0.0 | 0.00 | 0.00 | 0.00 | |||
| 20260508215457 | 55 | 158 | 6.0 | 8.0 | 0.00 | 0.00 | 0.00 | 70 | 1020.9 |
| 20260508215205 | 0 | 0.0 | 0.0 | 0.00 | 0.00 | 0.00 | |||
| 20260508214957 | 54 | 159 | 4.0 | 6.0 | 0.00 | 0.00 | 0.00 | 71 | 1020.7 |
| 20260508214704 | 0 | 0.0 | 0.0 | 0.00 | 0.00 | 0.00 | |||
| 20260508214457 | 53 | 169 | 6.0 | 10.0 | 0.00 | 0.00 | 0.00 | 70 | 1020.9 |
| 20260508213957 | 52 | 149 | 6.0 | 8.0 | 0.00 | 0.00 | 0.00 | 72 | 1020.8 |
| 20260508213701 | 0 | 0.0 | 0.0 | 0.00 | 0.00 | 0.00 | |||
| 20260508213457 | 52 | 144 | 5.0 | 8.0 | 0.00 | 0.00 | 0.00 | 73 | 1020.8 |
| 20260508213201 | 0 | 0.0 | 0.0 | 0.00 | 0.00 | 0.00 | |||
| 20260508212958 | 53 | 144 | 6.0 | 8.0 | 0.00 | 0.00 | 0.00 | 73 | 1020.7 |
| 20260508212702 | 0 | 0.0 | 0.0 | 0.00 | 0.00 | 0.00 | |||
| 20260508212458 | 53 | 162 | 6.0 | 8.0 | 0.00 | 0.00 | 0.00 | 73 | 1020.7 |
| 20260508212201 | 0 | 0.0 | 0.0 | 0.00 | 0.00 | 0.00 | |||
| 20260508211957 | 52 | 172 | 7.0 | 9.0 | 0.00 | 0.00 | 0.00 | 75 | 1020.8 |
| 20260508211702 | 0 | 0.0 | 0.0 | 0.00 | 0.00 | 0.00 | |||
| 20260508211457 | 52 | 156 | 4.0 | 8.0 | 0.00 | 0.00 | 0.00 | 76 | 1020.6 |
| 20260508210957 | 52 | 133 | 4.0 | 6.0 | 0.00 | 0.00 | 0.00 | 75 | 1020.5 |
| 20260508210702 | 0 | 0.0 | 0.0 | 0.00 | 0.00 | 0.00 | |||
| 20260508210457 | 52 | 159 | 5.0 | 7.0 | 0.00 | 0.00 | 0.00 | 76 | 1020.6 |
| 20260508210202 | 0 | 0.0 | 0.0 | 0.00 | 0.00 | 0.00 | |||
| 20260508210001 | 52 | 145 | 4.0 | 7.0 | 0.00 | 0.00 | 0.00 | 77 | 1020.5 |
| 20260508205457 | 52 | 135 | 4.0 | 5.0 | 0.00 | 0.00 | 0.00 | 76 | 1020.4 |
| 20260508205202 | 0 | 0.0 | 0.0 | 0.00 | 0.00 | 0.00 | |||
| 20260508204958 | 51 | 154 | 5.0 | 7.0 | 0.00 | 0.00 | 0.00 | 76 | 1020.4 |
| 20260508204702 | 0 | 0.0 | 0.0 | 0.00 | 0.00 | 0.00 | |||
| 20260508204457 | 51 | 134 | 4.0 | 5.0 | 0.00 | 0.00 | 0.00 | 76 | 1020.3 |
| 20260508204159 | 0 | 0.0 | 0.0 | 0.00 | 0.00 | 0.00 | |||
| 20260508203958 | 51 | 132 | 5.0 | 8.0 | 0.00 | 0.00 | 0.00 | 77 | 1020.4 |
| 20260508203700 | 0 | 0.0 | 0.0 | 0.00 | 0.00 | 0.00 | |||
| 20260508203457 | 52 | 150 | 5.0 | 9.0 | 0.00 | 0.00 | 0.00 | 76 | 1020.3 |
| 20260508202958 | 52 | 140 | 6.0 | 9.0 | 0.00 | 0.00 | 0.00 | 77 | 1020.2 |
| 20260508202659 | 0 | 0.0 | 0.0 | 0.00 | 0.00 | 0.00 | |||
| 20260508202458 | 52 | 158 | 4.0 | 6.0 | 0.00 | 0.00 | 0.00 | 76 | 1020.2 |
| 20260508202157 | 0 | 0.0 | 0.0 | 0.00 | 0.00 | 0.00 | |||
| 20260508201958 | 52 | 150 | 6.0 | 9.0 | 0.00 | 0.00 | 0.00 | 76 | 1020.3 |
| 20260508201657 | 0 | 0.0 | 0.0 | 0.00 | 0.00 | 0.00 | |||
| 20260508201457 | 52 | 153 | 6.0 | 8.0 | 0.00 | 0.00 | 0.00 | 76 | 1020.2 |
| 20260508200958 | 52 | 167 | 7.0 | 10.0 | 0.00 | 0.00 | 0.00 | 75 | 1020.1 |
| 20260508200657 | 0 | 0.0 | 0.0 | 0.00 | 0.00 | 0.00 | |||
| 20260508200458 | 53 | 165 | 8.0 | 10.0 | 0.00 | 0.00 | 0.00 | 75 | 1020.0 |
| 20260508200158 | 0 | 0.0 | 0.0 | 0.00 | 0.00 | 0.00 | |||
| 20260508195957 | 52 | 152 | 3.0 | 6.0 | 0.00 | 0.00 | 0.00 | 76 | 1020.0 |
| 20260508195658 | 0 | 0.0 | 0.0 | 0.00 | 0.00 | 0.00 | |||
| 20260508195457 | 52 | 137 | 4.0 | 6.0 | 0.00 | 0.00 | 0.00 | 75 | 1019.8 |
| 20260508195158 | 0 | 0.0 | 0.0 | 0.00 | 0.00 | 0.00 | |||
| 20260508194957 | 52 | 135 | 6.0 | 9.0 | 0.00 | 0.00 | 0.00 | 75 | 1019.7 |
| 20260508194657 | 0 | 0.0 | 0.0 | 0.00 | 0.00 | 0.00 | |||
| 20260508194457 | 53 | 162 | 9.0 | 13.0 | 0.00 | 0.00 | 0.00 | 73 | 1019.7 |
| 20260508194157 | 0 | 0.0 | 0.0 | 0.00 | 0.00 | 0.00 | |||
| 20260508193958 | 53 | 149 | 8.0 | 13.0 | 0.00 | 0.00 | 0.00 | 72 | 1019.5 |
| 20260508193657 | 0 | 0.0 | 0.0 | 0.00 | 0.00 | 0.00 | |||
| 20260508193457 | 52 | 144 | 6.0 | 8.0 | 0.00 | 0.00 | 0.00 | 73 | 1019.5 |
| 20260508193159 | 0 | 0.0 | 0.0 | 0.00 | 0.00 | 0.00 | |||
| 20260508192957 | 52 | 170 | 9.0 | 12.0 | 0.00 | 0.00 | 0.00 | 73 | 1019.7 |
| 20260508192657 | 0 | 0.0 | 0.0 | 0.00 | 0.00 | 0.00 | |||
| 20260508192458 | 51 | 141 | 4.0 | 6.0 | 0.00 | 0.00 | 0.00 | 75 | 1019.7 |
| 20260508192158 | 0 | 0.0 | 0.0 | 0.00 | 0.00 | 0.00 | |||
| 20260508191957 | 51 | 141 | 6.0 | 9.0 | 0.00 | 0.00 | 0.00 | 75 | 1019.5 |
| 20260508191457 | 51 | 149 | 4.0 | 6.0 | 0.00 | 0.00 | 0.00 | 76 | 1019.5 |
| 20260508191158 | 0 | 0.0 | 0.0 | 0.00 | 0.00 | 0.00 | |||
| 20260508190958 | 51 | 137 | 6.0 | 8.0 | 0.00 | 0.00 | 0.00 | 77 | 1019.5 |
| 20260508190457 | 51 | 134 | 5.0 | 8.0 | 0.00 | 0.00 | 0.00 | 76 | 1019.4 |
| 20260508190158 | 0 | 0.0 | 0.0 | 0.00 | 0.00 | 0.00 | |||
| 20260508185959 | 51 | 144 | 5.0 | 8.0 | 0.00 | 0.00 | 0.00 | 77 | 1019.4 |
| 20260508185457 | 52 | 159 | 6.0 | 9.0 | 0.00 | 0.00 | 0.00 | 76 | 1019.3 |
| 20260508184957 | 52 | 156 | 6.0 | 8.0 | 0.00 | 0.00 | 0.00 | 76 | 1019.2 |
| 20260508184658 | 0 | 0.0 | 0.0 | 0.00 | 0.00 | 0.00 | |||
| 20260508184457 | 52 | 159 | 7.0 | 12.0 | 0.00 | 0.00 | 0.00 | 76 | 1019.1 |
| 20260508184156 | 0 | 0.0 | 0.0 | 0.00 | 0.00 | 0.00 | |||
| 20260508183958 | 52 | 146 | 5.0 | 8.0 | 0.00 | 0.00 | 0.00 | 76 | 1019.2 |
| 20260508183655 | 0 | 0.0 | 0.0 | 0.00 | 0.00 | 0.00 | |||
| 20260508183457 | 52 | 138 | 4.0 | 6.0 | 0.00 | 0.00 | 0.00 | 77 | 1019.2 |
| 20260508183155 | 0 | 0.0 | 0.0 | 0.00 | 0.00 | 0.00 | |||
| 20260508182958 | 52 | 149 | 4.0 | 6.0 | 0.00 | 0.00 | 0.00 | 77 | 1019.2 |
| 20260508182655 | 0 | 0.0 | 0.0 | 0.00 | 0.00 | 0.00 | |||
| 20260508182459 | 51 | 145 | 4.0 | 5.0 | 0.00 | 0.00 | 0.00 | 77 | 1019.1 |
| 20260508182155 | 0 | 0.0 | 0.0 | 0.00 | 0.00 | 0.00 | |||
| 20260508181958 | 51 | 156 | 4.0 | 7.0 | 0.00 | 0.00 | 0.00 | 78 | 1019.1 |
| 20260508181656 | 0 | 0.0 | 0.0 | 0.00 | 0.00 | 0.00 | |||
| 20260508181457 | 51 | 156 | 5.0 | 8.0 | 0.00 | 0.00 | 0.00 | 78 | 1019.1 |
| 20260508180957 | 51 | 154 | 5.0 | 6.0 | 0.00 | 0.00 | 0.00 | 79 | 1019.0 |
| 20260508180656 | 0 | 0.0 | 0.0 | 0.00 | 0.00 | 0.00 | |||
| 20260508180457 | 51 | 151 | 5.0 | 6.0 | 0.00 | 0.00 | 0.00 | 79 | 1019.0 |
| 20260508175957 | 51 | 135 | 4.0 | 6.0 | 0.00 | 0.00 | 0.00 | 79 | 1018.9 |
| 20260508175656 | 0 | 0.0 | 0.0 | 0.00 | 0.00 | 0.00 | |||
| 20260508175457 | 50 | 146 | 4.0 | 6.0 | 0.00 | 0.00 | 0.00 | 79 | 1018.8 |
| 20260508175157 | 0 | 0.0 | 0.0 | 0.00 | 0.00 | 0.00 | |||
| 20260508174958 | 50 | 147 | 5.0 | 8.0 | 0.00 | 0.00 | 0.00 | 79 | 1018.8 |
| 20260508174656 | 0 | 0.0 | 0.0 | 0.00 | 0.00 | 0.00 | |||
| 20260508174457 | 50 | 125 | 6.0 | 9.0 | 0.00 | 0.00 | 0.00 | 79 | 1018.8 |
| 20260508174153 | 0 | 0.0 | 0.0 | 0.00 | 0.00 | 0.00 | |||
| 20260508173959 | 50 | 142 | 4.0 | 6.0 | 0.00 | 0.00 | 0.00 | 80 | 1018.7 |
| 20260508173459 | 49 | 126 | 4.0 | 5.0 | 0.00 | 0.00 | 0.00 | 79 | 1018.7 |
| 20260508173153 | 0 | 0.0 | 0.0 | 0.00 | 0.00 | 0.00 | |||
| 20260508172958 | 49 | 125 | 4.0 | 5.0 | 0.00 | 0.00 | 0.00 | 79 | 1018.7 |
| 20260508172458 | 49 | 136 | 4.0 | 4.0 | 0.00 | 0.00 | 0.00 | 80 | 1018.7 |
| 20260508172153 | 0 | 0.0 | 0.0 | 0.00 | 0.00 | 0.00 | |||
| 20260508172000 | 50 | 137 | 4.0 | 5.0 | 0.00 | 0.00 | 0.00 | 79 | 1018.6 |
| 20260508171654 | 0 | 0.0 | 0.0 | 0.00 | 0.00 | 0.00 | |||
| 20260508171458 | 50 | 146 | 4.0 | 4.0 | 0.00 | 0.00 | 0.00 | 79 | 1018.6 |
| 20260508171153 | 0 | 0.0 | 0.0 | 0.00 | 0.00 | 0.00 | |||
| 20260508170957 | 50 | 128 | 3.0 | 4.0 | 0.00 | 0.00 | 0.00 | 79 | 1018.4 |
| 20260508170654 | 0 | 0.0 | 0.0 | 0.00 | 0.00 | 0.00 | |||
| 20260508170457 | 50 | 128 | 4.0 | 5.0 | 0.00 | 0.00 | 0.00 | 80 | 1018.4 |
| 20260508170154 | 0 | 0.0 | 0.0 | 0.00 | 0.00 | 0.00 | |||
| 20260508165958 | 50 | 148 | 4.0 | 7.0 | 0.00 | 0.00 | 0.00 | 80 | 1018.4 |
| 20260508165653 | 0 | 0.0 | 0.0 | 0.00 | 0.00 | 0.00 | |||
| 20260508165500 | 50 | 144 | 4.0 | 6.0 | 0.00 | 0.00 | 0.00 | 80 | 1018.2 |
| 20260508165154 | 0 | 0.0 | 0.0 | 0.00 | 0.00 | 0.00 | |||
| 20260508165005 | 51 | 156 | 5.0 | 7.0 | 0.00 | 0.00 | 0.00 | 80 | 1018.1 |
| 20260508164458 | 50 | 137 | 4.0 | 5.0 | 0.00 | 0.00 | 0.00 | 80 | 1018.0 |
| 20260508164152 | 0 | 0.0 | 0.0 | 0.00 | 0.00 | 0.00 | |||
| 20260508163958 | 51 | 142 | 3.0 | 5.0 | 0.00 | 0.00 | 0.00 | 80 | 1017.9 |
| 20260508163651 | 0 | 0.0 | 0.0 | 0.00 | 0.00 | 0.00 | |||
| 20260508163457 | 50 | 149 | 4.0 | 5.0 | 0.00 | 0.00 | 0.00 | 81 | 1017.9 |
| 20260508163151 | 0 | 0.0 | 0.0 | 0.00 | 0.00 | 0.00 | |||
| 20260508162957 | 51 | 154 | 6.0 | 8.0 | 0.00 | 0.00 | 0.00 | 81 | 1017.9 |
| 20260508162652 | 0 | 0.0 | 0.0 | 0.00 | 0.00 | 0.00 | |||
| 20260508162457 | 51 | 146 | 3.0 | 6.0 | 0.00 | 0.00 | 0.00 | 82 | 1017.8 |
| 20260508161957 | 50 | 151 | 3.0 | 4.0 | 0.00 | 0.00 | 0.00 | 84 | 1017.9 |
| 20260508161652 | 0 | 0.0 | 0.0 | 0.00 | 0.00 | 0.00 | |||
| 20260508161457 | 50 | 145 | 4.0 | 5.0 | 0.00 | 0.00 | 0.00 | 84 | 1017.8 |
| 20260508161152 | 0 | 0.0 | 0.0 | 0.00 | 0.00 | 0.00 | |||
| 20260508160957 | 50 | 127 | 3.0 | 4.0 | 0.00 | 0.00 | 0.00 | 84 | 1017.7 |
| 20260508160651 | 0 | 0.0 | 0.0 | 0.00 | 0.00 | 0.00 | |||
| 20260508160500 | 50 | 115 | 4.0 | 5.0 | 0.00 | 0.00 | 0.00 | 83 | 1017.6 |
| 20260508160152 | 0 | 0.0 | 0.0 | 0.00 | 0.00 | 0.00 | |||
| 20260508155957 | 50 | 113 | 4.0 | 6.0 | 0.00 | 0.00 | 0.00 | 82 | 1017.6 |
| 20260508155652 | 0 | 0.0 | 0.0 | 0.00 | 0.00 | 0.00 | |||
| 20260508155457 | 50 | 137 | 2.0 | 3.0 | 0.00 | 0.00 | 0.00 | 83 | 1017.7 |
| 20260508154959 | 50 | 125 | 3.0 | 4.0 | 0.00 | 0.00 | 0.00 | 82 | 1017.6 |
| 20260508154653 | 0 | 0.0 | 0.0 | 0.00 | 0.00 | 0.00 | |||
| 20260508154458 | 50 | 117 | 2.0 | 4.0 | 0.00 | 0.00 | 0.00 | 83 | 1017.7 |
| 20260508153958 | 49 | 104 | 2.0 | 3.0 | 0.00 | 0.00 | 0.00 | 83 | 1017.6 |
| 20260508153649 | 0 | 0.0 | 0.0 | 0.00 | 0.00 | 0.00 | |||
| 20260508153458 | 49 | 95 | 1.0 | 3.0 | 0.00 | 0.00 | 0.00 | 83 | 1017.7 |
| 20260508153149 | 0 | 0.0 | 0.0 | 0.00 | 0.00 | 0.00 | |||
| 20260508152958 | 49 | 76 | 4.0 | 6.0 | 0.00 | 0.00 | 0.00 | 85 | 1017.6 |
| 20260508152649 | 0 | 0.0 | 0.0 | 0.00 | 0.00 | 0.00 | |||
| 20260508152458 | 49 | 111 | 4.0 | 5.0 | 0.00 | 0.00 | 0.00 | 86 | 1017.5 |
| 20260508152150 | 0 | 0.0 | 0.0 | 0.00 | 0.00 | 0.00 | |||
| 20260508151958 | 49 | 136 | 4.0 | 4.0 | 0.00 | 0.00 | 0.00 | 86 | 1017.5 |
| 20260508151655 | 0 | 0.0 | 0.0 | 0.00 | 0.00 | 0.00 | |||
| 20260508151457 | 49 | 143 | 5.0 | 7.0 | 0.00 | 0.00 | 0.00 | 86 | 1017.4 |
| 20260508151150 | 0 | 0.0 | 0.0 | 0.00 | 0.00 | 0.00 | |||
| 20260508150958 | 49 | 126 | 4.0 | 5.0 | 0.00 | 0.00 | 0.00 | 86 | 1017.3 |
| 20260508150649 | 0 | 0.0 | 0.0 | 0.00 | 0.00 | 0.00 | |||
| 20260508150457 | 48 | 105 | 7.0 | 8.0 | 0.00 | 0.00 | 0.00 | 85 | 1016.9 |
| 20260508150150 | 0 | 0.0 | 0.0 | 0.00 | 0.00 | 0.00 | |||
| 20260508145958 | 48 | 119 | 4.0 | 6.0 | 0.00 | 0.00 | 0.00 | 85 | 1017.1 |
| 20260508145650 | 0 | 0.0 | 0.0 | 0.00 | 0.00 | 0.00 | |||
| 20260508145457 | 48 | 132 | 4.0 | 5.0 | 0.00 | 0.00 | 0.00 | 85 | 1017.3 |
| 20260508145154 | 0 | 0.0 | 0.0 | 0.00 | 0.00 | 0.00 | |||
| 20260508144527 | 49 | 111 | 6.0 | 8.0 | 0.00 | 0.00 | 0.00 | 84 | 1017.1 |
| 20260508143958 | 49 | 130 | 4.0 | 5.0 | 0.00 | 0.00 | 0.00 | 84 | 1017.0 |
| 20260508143647 | 0 | 0.0 | 0.0 | 0.00 | 0.00 | 0.00 | |||
| 20260508143457 | 49 | 110 | 7.0 | 8.0 | 0.00 | 0.00 | 0.00 | 83 | 1016.8 |
| 20260508143147 | 0 | 0.0 | 0.0 | 0.00 | 0.00 | 0.00 | |||
| 20260508142957 | 49 | 113 | 6.0 | 8.0 | 0.00 | 0.00 | 0.00 | 84 | 1016.8 |
| 20260508142648 | 0 | 0.0 | 0.0 | 0.00 | 0.00 | 0.00 | |||
| 20260508142457 | 49 | 120 | 5.0 | 7.0 | 0.00 | 0.00 | 0.00 | 86 | 1016.6 |
| 20260508142146 | 0 | 0.0 | 0.0 | 0.00 | 0.00 | 0.00 | |||
| 20260508141958 | 49 | 126 | 5.0 | 6.0 | 0.00 | 0.00 | 0.00 | 85 | 1016.6 |
| 20260508141458 | 49 | 109 | 6.0 | 7.0 | 0.00 | 0.00 | 0.00 | 82 | 1016.6 |
| 20260508141141 | 0 | 0.0 | 0.0 | 0.00 | 0.00 | 0.00 | |||
| 20260508141003 | 49 | 134 | 3.0 | 4.0 | 0.00 | 0.00 | 0.00 | 83 | 1016.6 |
| 20260508140642 | 0 | 0.0 | 0.0 | 0.00 | 0.00 | 0.00 | |||
| 20260508140459 | 49 | 121 | 5.0 | 6.0 | 0.00 | 0.00 | 0.00 | 83 | 1016.5 |
| 20260508140154 | 0 | 0.0 | 0.0 | 0.00 | 0.00 | 0.00 | |||
| 20260508135957 | 49 | 112 | 5.0 | 6.0 | 0.00 | 0.00 | 0.00 | 83 | 1016.5 |
| 20260508135642 | 0 | 0.0 | 0.0 | 0.00 | 0.00 | 0.00 | |||
| 20260508135457 | 50 | 122 | 4.0 | 5.0 | 0.00 | 0.00 | 0.00 | 82 | 1016.5 |
| 20260508135142 | 0 | 0.0 | 0.0 | 0.00 | 0.00 | 0.00 | |||
| 20260508134957 | 50 | 107 | 5.0 | 6.0 | 0.00 | 0.00 | 0.00 | 82 | 1016.4 |
| 20260508134458 | 50 | 105 | 6.0 | 6.0 | 0.00 | 0.00 | 0.00 | 82 | 1016.2 |
| 20260508134139 | 0 | 0.0 | 0.0 | 0.00 | 0.00 | 0.00 | |||
| 20260508133958 | 50 | 109 | 5.0 | 6.0 | 0.00 | 0.00 | 0.00 | 82 | 1016.2 |
| 20260508133636 | 0 | 0.0 | 0.0 | 0.00 | 0.00 | 0.00 | |||
| 20260508133457 | 50 | 106 | 5.0 | 7.0 | 0.00 | 0.00 | 0.00 | 82 | 1016.1 |
| 20260508133136 | 0 | 0.0 | 0.0 | 0.00 | 0.00 | 0.00 | |||
| 20260508132958 | 50 | 110 | 6.0 | 7.0 | 0.00 | 0.00 | 0.00 | 82 | 1016.1 |
| 20260508132635 | 0 | 0.0 | 0.0 | 0.00 | 0.00 | 0.00 | |||
| 20260508132459 | 50 | 106 | 4.0 | 6.0 | 0.00 | 0.00 | 0.00 | 82 | 1016.2 |
| 20260508132134 | 0 | 0.0 | 0.0 | 0.00 | 0.00 | 0.00 | |||
| 20260508132004 | 50 | 109 | 5.0 | 6.0 | 0.00 | 0.00 | 0.00 | 82 | 1016.2 |
| 20260508131457 | 49 | 104 | 6.0 | 8.0 | 0.00 | 0.00 | 0.00 | 82 | 1016.2 |
| 20260508131005 | 49 | 98 | 6.0 | 8.0 | 0.00 | 0.00 | 0.00 | 82 | 1016.0 |
| 20260508130458 | 49 | 128 | 3.0 | 4.0 | 0.00 | 0.00 | 0.00 | 82 | 1016.1 |
| 20260508125958 | 49 | 104 | 6.0 | 8.0 | 0.00 | 0.00 | 0.00 | 82 | 1016.1 |
| 20260508125634 | 0 | 0.0 | 0.0 | 0.00 | 0.00 | 0.00 | |||
| 20260508125458 | 49 | 109 | 5.0 | 6.0 | 0.00 | 0.00 | 0.00 | 82 | 1016.1 |
| 20260508125133 | 0 | 0.0 | 0.0 | 0.00 | 0.00 | 0.00 | |||
| 20260508124957 | 49 | 98 | 6.0 | 8.0 | 0.00 | 0.00 | 0.00 | 83 | 1016.0 |
| 20260508124457 | 49 | 97 | 5.0 | 7.0 | 0.00 | 0.00 | 0.00 | 83 | 1016.1 |
| 20260508123957 | 50 | 116 | 4.0 | 5.0 | 0.00 | 0.00 | 0.00 | 82 | 1016.2 |
| 20260508123457 | 50 | 108 | 5.0 | 7.0 | 0.00 | 0.00 | 0.00 | 83 | 1016.0 |
| 20260508123130 | 0 | 0.0 | 0.0 | 0.00 | 0.00 | 0.00 | |||
| 20260508122957 | 49 | 116 | 4.0 | 5.0 | 0.00 | 0.00 | 0.00 | 82 | 1016.0 |
| 20260508122638 | 0 | 0.0 | 0.0 | 0.00 | 0.00 | 0.00 | |||
| 20260508122119 | 0 | 0.0 | 0.0 | 0.00 | 0.00 | 0.00 | |||
| 20260508122022 | 49 | 113 | 4.0 | 6.0 | 0.00 | 0.00 | 0.00 | 83 | 1016.1 |
| 20260508121620 | 0 | 0.0 | 0.0 | 0.00 | 0.00 | 0.00 | |||
| 20260508121457 | 49 | 109 | 4.0 | 5.0 | 0.00 | 0.00 | 0.00 | 83 | 1016.0 |
| 20260508121120 | 0 | 0.0 | 0.0 | 0.00 | 0.00 | 0.00 | |||
| 20260508120958 | 49 | 108 | 5.0 | 6.0 | 0.00 | 0.00 | 0.00 | 83 | 1016.0 |
| 20260508120618 | 0 | 0.0 | 0.0 | 0.00 | 0.00 | 0.00 | |||
| 20260508120458 | 49 | 114 | 5.0 | 6.0 | 0.00 | 0.00 | 0.00 | 84 | 1016.1 |
| 20260508120118 | 0 | 0.0 | 0.0 | 0.00 | 0.00 | 0.00 | |||
| 20260508115958 | 49 | 112 | 5.0 | 6.0 | 0.00 | 0.00 | 0.00 | 84 | 1016.1 |
| 20260508115458 | 49 | 114 | 4.0 | 5.0 | 0.00 | 0.00 | 0.00 | 84 | 1016.1 |
| 20260508114957 | 49 | 113 | 5.0 | 6.0 | 0.00 | 0.00 | 0.00 | 84 | 1016.0 |
| 20260508114457 | 49 | 108 | 5.0 | 6.0 | 0.00 | 0.00 | 0.00 | 84 | 1016.0 |
| 20260508114145 | 0 | 0.0 | 0.0 | 0.00 | 0.00 | 0.00 | |||
| 20260508113957 | 49 | 117 | 4.0 | 5.0 | 0.00 | 0.00 | 0.00 | 84 | 1015.9 |
| 20260508113617 | 0 | 0.0 | 0.0 | 0.00 | 0.00 | 0.00 | |||
| 20260508113457 | 50 | 117 | 4.0 | 5.0 | 0.00 | 0.00 | 0.00 | 83 | 1015.8 |
| 20260508113108 | 0 | 0.0 | 0.0 | 0.00 | 0.00 | 0.00 | |||
| 20260508113001 | 51 | 118 | 4.0 | 5.0 | 0.00 | 0.00 | 0.00 | 83 | 1015.7 |
| 20260508112609 | 0 | 0.0 | 0.0 | 0.00 | 0.00 | 0.00 | |||
| 20260508112457 | 51 | 122 | 4.0 | 5.0 | 0.00 | 0.00 | 0.00 | 82 | 1015.7 |
| 20260508112108 | 0 | 0.0 | 0.0 | 0.00 | 0.00 | 0.00 | |||
| 20260508111957 | 51 | 122 | 3.0 | 4.0 | 0.00 | 0.00 | 0.00 | 82 | 1015.6 |
| 20260508111609 | 0 | 0.0 | 0.0 | 0.00 | 0.00 | 0.00 | |||
| 20260508111459 | 51 | 116 | 6.0 | 7.0 | 0.00 | 0.00 | 0.00 | 82 | 1015.6 |
| 20260508111108 | 0 | 0.0 | 0.0 | 0.00 | 0.00 | 0.00 | |||
| 20260508110957 | 51 | 116 | 5.0 | 6.0 | 0.00 | 0.00 | 0.00 | 82 | 1015.7 |
| 20260508110609 | 0 | 0.0 | 0.0 | 0.00 | 0.00 | 0.00 | |||
| 20260508110458 | 51 | 116 | 5.0 | 7.0 | 0.00 | 0.00 | 0.00 | 81 | 1015.6 |
| 20260508105957 | 52 | 112 | 5.0 | 6.0 | 0.00 | 0.00 | 0.00 | 81 | 1015.7 |
| 20260508105457 | 52 | 125 | 4.0 | 6.0 | 0.00 | 0.00 | 0.00 | 81 | 1015.7 |
| 20260508104957 | 52 | 112 | 5.0 | 7.0 | 0.00 | 0.00 | 0.00 | 80 | 1015.7 |
| 20260508104609 | 0 | 0.0 | 0.0 | 0.00 | 0.00 | 0.00 | |||
| 20260508104458 | 51 | 110 | 6.0 | 7.0 | 0.00 | 0.00 | 0.00 | 81 | 1015.7 |
| 20260508104108 | 0 | 0.0 | 0.0 | 0.00 | 0.00 | 0.00 | |||
| 20260508103957 | 51 | 108 | 5.0 | 6.0 | 0.00 | 0.00 | 0.00 | 81 | 1015.7 |
| 20260508103607 | 0 | 0.0 | 0.0 | 0.00 | 0.00 | 0.00 | |||
| 20260508103457 | 52 | 113 | 4.0 | 6.0 | 0.00 | 0.00 | 0.00 | 80 | 1015.7 |
| 20260508103108 | 0 | 0.0 | 0.0 | 0.00 | 0.00 | 0.00 | |||
| 20260508102957 | 52 | 113 | 5.0 | 6.0 | 0.00 | 0.00 | 0.00 | 80 | 1015.7 |
| 20260508102607 | 0 | 0.0 | 0.0 | 0.00 | 0.00 | 0.00 | |||
| 20260508102458 | 52 | 121 | 4.0 | 5.0 | 0.00 | 0.00 | 0.00 | 81 | 1015.7 |
| 20260508102108 | 0 | 0.0 | 0.0 | 0.00 | 0.00 | 0.00 | |||
| 20260508101958 | 52 | 126 | 3.0 | 4.0 | 0.00 | 0.00 | 0.00 | 80 | 1015.7 |
| 20260508101458 | 52 | 106 | 5.0 | 6.0 | 0.00 | 0.00 | 0.00 | 81 | 1015.7 |
| 20260508101108 | 0 | 0.0 | 0.0 | 0.00 | 0.00 | 0.00 | |||
| 20260508100957 | 52 | 108 | 4.0 | 6.0 | 0.00 | 0.00 | 0.00 | 81 | 1015.7 |
| 20260508100608 | 0 | 0.0 | 0.0 | 0.00 | 0.00 | 0.00 | |||
| 20260508100457 | 52 | 114 | 4.0 | 5.0 | 0.00 | 0.00 | 0.00 | 81 | 1015.7 |
| 20260508100108 | 0 | 0.0 | 0.0 | 0.00 | 0.00 | 0.00 | |||
| 20260508095957 | 52 | 109 | 4.0 | 5.0 | 0.00 | 0.00 | 0.00 | 81 | 1015.7 |
| 20260508095608 | 0 | 0.0 | 0.0 | 0.00 | 0.00 | 0.00 | |||
| 20260508095457 | 51 | 104 | 5.0 | 7.0 | 0.00 | 0.00 | 0.00 | 81 | 1015.6 |
| 20260508095108 | 0 | 0.0 | 0.0 | 0.00 | 0.00 | 0.00 | |||
| 20260508094957 | 51 | 100 | 5.0 | 7.0 | 0.00 | 0.00 | 0.00 | 82 | 1015.6 |
| 20260508094457 | 51 | 106 | 4.0 | 4.0 | 0.00 | 0.00 | 0.00 | 82 | 1015.6 |
| 20260508094108 | 0 | 0.0 | 0.0 | 0.00 | 0.00 | 0.00 | |||
| 20260508093958 | 52 | 111 | 4.0 | 5.0 | 0.00 | 0.00 | 0.00 | 81 | 1015.6 |
| 20260508093607 | 0 | 0.0 | 0.0 | 0.00 | 0.00 | 0.00 | |||
| 20260508093457 | 52 | 111 | 5.0 | 6.0 | 0.00 | 0.00 | 0.00 | 81 | 1015.6 |
| 20260508093108 | 0 | 0.0 | 0.0 | 0.00 | 0.00 | 0.00 | |||
| 20260508092958 | 52 | 120 | 4.0 | 4.0 | 0.00 | 0.00 | 0.00 | 81 | 1015.6 |
| 20260508092607 | 0 | 0.0 | 0.0 | 0.00 | 0.00 | 0.00 | |||
| 20260508092457 | 52 | 112 | 4.0 | 6.0 | 0.00 | 0.00 | 0.00 | 82 | 1015.7 |
| 20260508092107 | 0 | 0.0 | 0.0 | 0.00 | 0.00 | 0.00 | |||
| 20260508091957 | 52 | 111 | 4.0 | 5.0 | 0.00 | 0.00 | 0.00 | 82 | 1015.7 |
| 20260508091607 | 0 | 0.0 | 0.0 | 0.00 | 0.00 | 0.00 | |||
| 20260508091457 | 52 | 111 | 4.0 | 4.0 | 0.00 | 0.00 | 0.00 | 82 | 1015.7 |
| 20260508091108 | 0 | 0.0 | 0.0 | 0.00 | 0.00 | 0.00 | |||
| 20260508090958 | 52 | 113 | 4.0 | 5.0 | 0.00 | 0.00 | 0.00 | 82 | 1015.7 |
| 20260508090608 | 0 | 0.0 | 0.0 | 0.00 | 0.00 | 0.00 | |||
| 20260508090457 | 52 | 118 | 3.0 | 4.0 | 0.00 | 0.00 | 0.00 | 81 | 1015.7 |
| 20260508090108 | 0 | 0.0 | 0.0 | 0.00 | 0.00 | 0.00 | |||
| 20260508085957 | 52 | 114 | 4.0 | 5.0 | 0.00 | 0.00 | 0.00 | 81 | 1015.6 |
| 20260508085608 | 0 | 0.0 | 0.0 | 0.00 | 0.00 | 0.00 | |||
| 20260508085457 | 52 | 110 | 4.0 | 5.0 | 0.00 | 0.00 | 0.00 | 81 | 1015.6 |
| 20260508085108 | 0 | 0.0 | 0.0 | 0.00 | 0.00 | 0.00 | |||
| 20260508084958 | 52 | 116 | 4.0 | 5.0 | 0.00 | 0.00 | 0.00 | 81 | 1015.6 |
| 20260508084606 | 0 | 0.0 | 0.0 | 0.00 | 0.00 | 0.00 | |||
| 20260508084457 | 52 | 104 | 4.0 | 6.0 | 0.00 | 0.00 | 0.00 | 81 | 1015.7 |
| 20260508084105 | 0 | 0.0 | 0.0 | 0.00 | 0.00 | 0.00 | |||
| 20260508083957 | 52 | 109 | 4.0 | 5.0 | 0.00 | 0.00 | 0.00 | 81 | 1015.7 |
| 20260508083602 | 0 | 0.0 | 0.0 | 0.00 | 0.00 | 0.00 | |||
| 20260508083457 | 52 | 106 | 4.0 | 6.0 | 0.00 | 0.00 | 0.00 | 81 | 1015.7 |
| 20260508083102 | 0 | 0.0 | 0.0 | 0.00 | 0.00 | 0.00 | |||
| 20260508082957 | 52 | 103 | 4.0 | 6.0 | 0.00 | 0.00 | 0.00 | 81 | 1015.7 |
| 20260508082602 | 0 | 0.0 | 0.0 | 0.00 | 0.00 | 0.00 | |||
| 20260508082458 | 52 | 107 | 4.0 | 6.0 | 0.00 | 0.00 | 0.00 | 81 | 1015.7 |
| 20260508082103 | 0 | 0.0 | 0.0 | 0.00 | 0.00 | 0.00 | |||
| 20260508081957 | 52 | 107 | 4.0 | 5.0 | 0.00 | 0.00 | 0.00 | 81 | 1015.8 |
| 20260508081603 | 0 | 0.0 | 0.0 | 0.00 | 0.00 | 0.00 | |||
| 20260508081457 | 52 | 102 | 5.0 | 6.0 | 0.00 | 0.00 | 0.00 | 80 | 1015.8 |
| 20260508081102 | 0 | 0.0 | 0.0 | 0.00 | 0.00 | 0.00 | |||
| 20260508080957 | 52 | 116 | 4.0 | 5.0 | 0.00 | 0.00 | 0.00 | 79 | 1015.8 |
| 20260508080457 | 52 | 114 | 4.0 | 5.0 | 0.00 | 0.00 | 0.00 | 80 | 1015.8 |
| 20260508075957 | 52 | 108 | 5.0 | 6.0 | 0.00 | 0.00 | 0.00 | 79 | 1015.8 |
| 20260508075458 | 52 | 121 | 4.0 | 5.0 | 0.00 | 0.00 | 0.00 | 79 | 1015.9 |
| 20260508075102 | 0 | 0.0 | 0.0 | 0.00 | 0.00 | 0.00 | |||
| 20260508074957 | 52 | 114 | 4.0 | 5.0 | 0.00 | 0.00 | 0.00 | 80 | 1015.9 |
| 20260508074603 | 0 | 0.0 | 0.0 | 0.00 | 0.00 | 0.00 | |||
| 20260508074457 | 52 | 112 | 4.0 | 5.0 | 0.00 | 0.00 | 0.00 | 80 | 1016.0 |
| 20260508074100 | 0 | 0.0 | 0.0 | 0.00 | 0.00 | 0.00 | |||
| 20260508073957 | 52 | 89 | 5.0 | 7.0 | 0.00 | 0.00 | 0.00 | 80 | 1016.0 |
| 20260508073600 | 0 | 0.0 | 0.0 | 0.00 | 0.00 | 0.00 | |||
| 20260508073458 | 52 | 114 | 4.0 | 4.0 | 0.00 | 0.00 | 0.00 | 80 | 1016.1 |
| 20260508072957 | 52 | 111 | 4.0 | 5.0 | 0.00 | 0.00 | 0.00 | 81 | 1016.1 |
| 20260508072557 | 0 | 0.0 | 0.0 | 0.00 | 0.00 | 0.00 | |||
| 20260508072457 | 52 | 104 | 4.0 | 6.0 | 0.00 | 0.00 | 0.00 | 80 | 1016.2 |
| 20260508072058 | 0 | 0.0 | 0.0 | 0.00 | 0.00 | 0.00 | |||
| 20260508071957 | 52 | 98 | 4.0 | 5.0 | 0.00 | 0.00 | 0.00 | 80 | 1016.1 |
| 20260508071557 | 0 | 0.0 | 0.0 | 0.00 | 0.00 | 0.00 | |||
| 20260508071457 | 52 | 113 | 5.0 | 6.0 | 0.00 | 0.00 | 0.00 | 80 | 1016.2 |
| 20260508071058 | 0 | 0.0 | 0.0 | 0.00 | 0.00 | 0.00 | |||
| 20260508070958 | 52 | 118 | 4.0 | 5.0 | 0.00 | 0.00 | 0.00 | 80 | 1016.2 |
| 20260508070558 | 0 | 0.0 | 0.0 | 0.00 | 0.00 | 0.00 | |||
| 20260508070458 | 52 | 112 | 5.0 | 6.0 | 0.00 | 0.00 | 0.00 | 80 | 1016.1 |
| 20260508070059 | 0 | 0.0 | 0.0 | 0.00 | 0.00 | 0.00 | |||
| 20260508065957 | 52 | 109 | 4.0 | 5.0 | 0.00 | 0.00 | 0.00 | 80 | 1016.2 |
| 20260508065559 | 0 | 0.0 | 0.0 | 0.00 | 0.00 | 0.00 | |||
| 20260508065457 | 52 | 112 | 4.0 | 5.0 | 0.00 | 0.00 | 0.00 | 80 | 1016.2 |
| 20260508065058 | 0 | 0.0 | 0.0 | 0.00 | 0.00 | 0.00 | |||
| 20260508064958 | 52 | 105 | 6.0 | 7.0 | 0.00 | 0.00 | 0.00 | 80 | 1016.2 |
| 20260508064558 | 0 | 0.0 | 0.0 | 0.00 | 0.00 | 0.00 | |||
| 20260508064458 | 52 | 112 | 4.0 | 6.0 | 0.00 | 0.00 | 0.00 | 80 | 1016.2 |
| 20260508064058 | 0 | 0.0 | 0.0 | 0.00 | 0.00 | 0.00 | |||
| 20260508063958 | 52 | 103 | 5.0 | 6.0 | 0.00 | 0.00 | 0.00 | 80 | 1016.4 |
| 20260508063559 | 0 | 0.0 | 0.0 | 0.00 | 0.00 | 0.00 | |||
| 20260508063457 | 52 | 109 | 4.0 | 5.0 | 0.00 | 0.00 | 0.00 | 80 | 1016.4 |
| 20260508063056 | 0 | 0.0 | 0.0 | 0.00 | 0.00 | 0.00 | |||
| 20260508062958 | 52 | 119 | 4.0 | 6.0 | 0.00 | 0.00 | 0.00 | 80 | 1016.4 |
| 20260508062555 | 0 | 0.0 | 0.0 | 0.00 | 0.00 | 0.00 | |||
| 20260508062457 | 52 | 107 | 4.0 | 6.0 | 0.00 | 0.00 | 0.00 | 80 | 1016.4 |
| 20260508062055 | 0 | 0.0 | 0.0 | 0.00 | 0.00 | 0.00 | |||
| 20260508061957 | 52 | 106 | 6.0 | 8.0 | 0.00 | 0.00 | 0.00 | 80 | 1016.5 |
| 20260508061555 | 0 | 0.0 | 0.0 | 0.00 | 0.00 | 0.00 | |||
| 20260508061457 | 52 | 112 | 5.0 | 6.0 | 0.00 | 0.00 | 0.00 | 80 | 1016.5 |
| 20260508061056 | 0 | 0.0 | 0.0 | 0.00 | 0.00 | 0.00 | |||
| 20260508060957 | 51 | 116 | 6.0 | 7.0 | 0.00 | 0.00 | 0.00 | 80 | 1016.5 |
| 20260508060457 | 51 | 118 | 4.0 | 6.0 | 0.00 | 0.00 | 0.00 | 81 | 1016.5 |
| 20260508055957 | 52 | 110 | 4.0 | 5.0 | 0.00 | 0.00 | 0.00 | 80 | 1016.5 |
| 20260508055556 | 0 | 0.0 | 0.0 | 0.00 | 0.00 | 0.00 | |||
| 20260508055458 | 52 | 126 | 4.0 | 5.0 | 0.00 | 0.00 | 0.00 | 80 | 1016.6 |
| 20260508055056 | 0 | 0.0 | 0.0 | 0.00 | 0.00 | 0.00 | |||
| 20260508054959 | 52 | 128 | 4.0 | 5.0 | 0.00 | 0.00 | 0.00 | 80 | 1016.6 |
| 20260508054557 | 0 | 0.0 | 0.0 | 0.00 | 0.00 | 0.00 | |||
| 20260508054457 | 51 | 97 | 6.0 | 8.0 | 0.00 | 0.00 | 0.00 | 80 | 1016.6 |
| 20260508054056 | 0 | 0.0 | 0.0 | 0.00 | 0.00 | 0.00 | |||
| 20260508053957 | 51 | 88 | 5.0 | 7.0 | 0.00 | 0.00 | 0.00 | 80 | 1016.7 |
| 20260508053554 | 0 | 0.0 | 0.0 | 0.00 | 0.00 | 0.00 | |||
| 20260508053458 | 51 | 120 | 4.0 | 6.0 | 0.00 | 0.00 | 0.00 | 80 | 1016.6 |
| 20260508053053 | 0 | 0.0 | 0.0 | 0.00 | 0.00 | 0.00 | |||
| 20260508052957 | 51 | 111 | 5.0 | 6.0 | 0.00 | 0.00 | 0.00 | 81 | 1016.5 |
| 20260508052553 | 0 | 0.0 | 0.0 | 0.00 | 0.00 | 0.00 | |||
| 20260508052457 | 51 | 101 | 6.0 | 8.0 | 0.00 | 0.00 | 0.00 | 81 | 1016.5 |
| 20260508052054 | 0 | 0.0 | 0.0 | 0.00 | 0.00 | 0.00 | |||
| 20260508051957 | 51 | 116 | 4.0 | 6.0 | 0.00 | 0.00 | 0.00 | 81 | 1016.5 |
| 20260508051554 | 0 | 0.0 | 0.0 | 0.00 | 0.00 | 0.00 | |||
| 20260508051457 | 51 | 105 | 5.0 | 6.0 | 0.00 | 0.00 | 0.00 | 81 | 1016.5 |
| 20260508050958 | 51 | 109 | 4.0 | 5.0 | 0.00 | 0.00 | 0.00 | 81 | 1016.5 |
| 20260508050553 | 0 | 0.0 | 0.0 | 0.00 | 0.00 | 0.00 | |||
| 20260508050457 | 51 | 114 | 4.0 | 5.0 | 0.00 | 0.00 | 0.00 | 81 | 1016.5 |
| 20260508050054 | 0 | 0.0 | 0.0 | 0.00 | 0.00 | 0.00 | |||
| 20260508045957 | 51 | 100 | 5.0 | 6.0 | 0.00 | 0.00 | 0.00 | 80 | 1016.5 |
| 20260508045554 | 0 | 0.0 | 0.0 | 0.00 | 0.00 | 0.00 | |||
| 20260508045458 | 51 | 106 | 4.0 | 5.0 | 0.00 | 0.00 | 0.00 | 80 | 1016.5 |
| 20260508045054 | 0 | 0.0 | 0.0 | 0.00 | 0.00 | 0.00 | |||
| 20260508044957 | 51 | 106 | 5.0 | 6.0 | 0.00 | 0.00 | 0.00 | 80 | 1016.5 |
| 20260508044554 | 0 | 0.0 | 0.0 | 0.00 | 0.00 | 0.00 | |||
| 20260508044457 | 51 | 114 | 4.0 | 5.0 | 0.00 | 0.00 | 0.00 | 80 | 1016.6 |
| 20260508044054 | 0 | 0.0 | 0.0 | 0.00 | 0.00 | 0.00 | |||
| 20260508043957 | 51 | 107 | 4.0 | 5.0 | 0.00 | 0.00 | 0.00 | 79 | 1016.6 |
| 20260508043552 | 0 | 0.0 | 0.0 | 0.00 | 0.00 | 0.00 | |||
| 20260508043457 | 51 | 93 | 5.0 | 6.0 | 0.00 | 0.00 | 0.00 | 79 | 1016.7 |
| 20260508043051 | 0 | 0.0 | 0.0 | 0.00 | 0.00 | 0.00 | |||
| 20260508042957 | 51 | 94 | 5.0 | 6.0 | 0.00 | 0.00 | 0.00 | 80 | 1016.7 |
| 20260508042457 | 51 | 100 | 4.0 | 6.0 | 0.00 | 0.00 | 0.00 | 79 | 1016.8 |
| 20260508042052 | 0 | 0.0 | 0.0 | 0.00 | 0.00 | 0.00 | |||
| 20260508041958 | 51 | 99 | 5.0 | 6.0 | 0.00 | 0.00 | 0.00 | 80 | 1016.9 |
| 20260508041552 | 0 | 0.0 | 0.0 | 0.00 | 0.00 | 0.00 | |||
| 20260508041457 | 51 | 98 | 4.0 | 6.0 | 0.00 | 0.00 | 0.00 | 80 | 1016.9 |
| 20260508041052 | 0 | 0.0 | 0.0 | 0.00 | 0.00 | 0.00 | |||
| 20260508040957 | 51 | 104 | 4.0 | 5.0 | 0.00 | 0.00 | 0.00 | 80 | 1016.9 |
| 20260508040552 | 0 | 0.0 | 0.0 | 0.00 | 0.00 | 0.00 | |||
| 20260508040458 | 51 | 106 | 5.0 | 6.0 | 0.00 | 0.00 | 0.00 | 81 | 1016.8 |
| 20260508040051 | 0 | 0.0 | 0.0 | 0.00 | 0.00 | 0.00 | |||
| 20260508035957 | 52 | 111 | 4.0 | 5.0 | 0.00 | 0.00 | 0.00 | 81 | 1016.8 |